This is the latest recevied weather packets stored in our database for station/object EA7HQL-10. If no packets are shown the sender has not sent any weather packets the latest 10 day(s).
| Time | Temp. | Humidity | Pressure | Rain* | Wind** | Luminosity | Snow |
|---|---|---|---|---|---|---|---|
| 1777904230 | 23.33° C | 51% | 1011.1 hPa | 0 mm | - | - | - |
| 1777903935 | 22.78° C | 51% | 1010.9 hPa | 0 mm | - | - | - |
| 1777903685 | 23.89° C | 52% | 1010.7 hPa | 0 mm | - | - | - |
| 1777903405 | 23.89° C | 52% | 1010.9 hPa | 0 mm | - | - | - |
| 1777903160 | 23.33° C | 53% | 1011 hPa | 0 mm | - | - | - |
| 1777902864 | 22.78° C | 55% | 1011 hPa | 0 mm | - | - | - |
| 1777902625 | 22.78° C | 55% | 1011 hPa | 0 mm | - | - | - |
| 1777902380 | 22.78° C | 55% | 1011.2 hPa | 0 mm | - | - | - |
| 1777902140 | 22.22° C | 54% | 1011.3 hPa | 0 mm | - | - | - |
| 1777901853 | 22.22° C | 57% | 1011.3 hPa | 0 mm | - | - | - |
| 1777901570 | 22.22° C | 56% | 1011.3 hPa | 0 mm | - | - | - |
| 1777901275 | 22.78° C | 55% | 1011.1 hPa | 0 mm | - | - | - |
| 1777900985 | 22.78° C | 55% | 1011.4 hPa | 0 mm | - | - | - |
| 1777900745 | 22.22° C | 57% | 1011.3 hPa | 0 mm | - | - | - |
| 1777900455 | 22.78° C | 56% | 1011.5 hPa | 0 mm | - | - | - |
| 1777900190 | 22.22° C | 57% | 1011.3 hPa | 0 mm | - | - | - |
| 1777899950 | 22.22° C | 57% | 1011.4 hPa | 0 mm | - | - | - |
| 1777899655 | 22.78° C | 57% | 1011.5 hPa | 0 mm | - | - | - |
| 1777899405 | 22.78° C | 57% | 1011.4 hPa | 0 mm | - | - | - |
| 1777899115 | 22.22° C | 57% | 1011.3 hPa | 0 mm | - | - | - |
| 1777898870 | 22.22° C | 57% | 1011.5 hPa | 0 mm | - | - | - |
| 1777898570 | 22.22° C | 57% | 1011.4 hPa | 0 mm | - | - | - |
| 1777898310 | 22.78° C | 55% | 1011.5 hPa | 0 mm | - | - | - |
| 1777898070 | 22.22° C | 56% | 1011.7 hPa | 0 mm | - | - | - |
| 1777897790 | 21.67° C | 58% | 1011.5 hPa | 0 mm | - | - | - |
* Rain latest hour (hover to see other rain measurements)
** Current wind speed in m/s (hover to see current wind gust speed)